EW5637 Weather Reports


Display with metric or nautical units.
time (UTC)temp
F
wind
direction
speed
MPH
gust
MPH
rain 1hr
in
rain 24hr
in
rain mn
in
humidity
%
barometer
mb
20260831231041 76 0 0.0 0.0 0.00 0.04 0.04 88 1018.5
20260831230544 76 0 0.0 0.0 0.00 0.04 0.04 87 1018.5
20260831225541 77 0 0.0 2.0 0.00 0.04 0.04 86 1018.6
20260831225046 77 0 0.0 2.0 0.00 0.04 0.04 86 1018.5
20260831224555 77 175 0.0 2.0 0.00 0.04 0.04 86 1018.4
20260831224041 78 175 1.0 3.0 0.00 0.04 0.04 85 1018.4
20260831223542 77 175 0.0 5.0 0.00 0.04 0.04 86 1018.5
20260831223056 77 174 0.0 5.0 0.00 0.04 0.04 86 1018.5
20260831222543 77 0 0.0 1.0 0.00 0.04 0.04 86 1018.5
20260831222042 77 0 0.0 0.0 0.00 0.04 0.04 88 1018.7
20260831221555 77 0 0.0 0.0 0.00 0.04 0.04 87 1018.7
20260831221042 78 0 0.0 0.0 0.00 0.04 0.04 88 1018.9
20260831220542 78 0 0.0 0.0 0.00 0.04 0.04 87 1018.8
20260831220104 78 0 0.0 0.0 0.00 0.04 0.04 87 1018.8
20260831215542 78 0 0.0 0.0 0.00 0.04 0.04 86 1018.9
20260831215042 77 0 0.0 0.0 0.00 0.04 0.04 84 1018.9
20260831214622 77 0 0.0 0.0 0.00 0.04 0.04 85 1018.9
20260831214042 77 0 0.0 0.0 0.00 0.04 0.04 85 1018.8
20260831213541 77 0 0.0 4.0 0.00 0.04 0.04 85 1018.9
20260831213101 77 0 1.0 5.0 0.00 0.04 0.04 84 1018.8
20260831212542 77 174 2.0 5.0 0.00 0.04 0.04 84 1018.9
20260831212041 77 173 2.0 4.0 0.00 0.04 0.04 83 1019.0
20260831211602 78 173 1.0 4.0 0.00 0.04 0.04 81 1019.0
20260831211045 78 0 0.0 5.0 0.00 0.04 0.04 81 1019.0
20260831210635 78 169 1.0 5.0 0.00 0.04 0.04 80 1019.2
20260831205541 78 173 1.0 5.0 0.00 0.04 0.04 79 1019.3
20260831205041 79 163 0.0 6.0 0.00 0.04 0.04 79 1019.2
20260831204601 79 170 1.0 6.0 0.00 0.04 0.04 78 1019.3
20260831204043 79 171 1.0 5.0 0.00 0.04 0.04 78 1019.2
20260831203546 79 0 0.0 8.0 0.00 0.04 0.04 79 1019.1
20260831203052 79 159 2.0 8.0 0.00 0.04 0.04 78 1019.2
20260831202542 79 0 1.0 6.0 0.00 0.04 0.04 78 1019.1
20260831202042 79 174 1.0 6.0 0.00 0.04 0.04 78 1019.2
20260831201631 79 186 2.0 6.0 0.00 0.04 0.04 77 1019.2
20260831201041 79 0 2.0 6.0 0.00 0.04 0.04 77 1019.3
20260831200726 79 194 0.0 7.0 0.00 0.04 0.04 77 1019.4
20260831200125 79 180 1.0 7.0 0.00 0.04 0.04 76 1019.4
20260831195041 80 139 2.0 7.0 0.00 0.04 0.04 75 1019.3
20260831194555 80 173 2.0 7.0 0.00 0.04 0.04 76 1019.4
20260831194324 80 0 2.0 7.0 0.00 0.04 0.04 76 1019.5
20260831193544 80 184 3.0 7.0 0.00 0.04 0.04 75 1019.4
20260831193102 80 196 3.0 8.0 0.00 0.04 0.04 75 1019.4
20260831192541 80 163 3.0 8.0 0.00 0.04 0.04 75 1019.5
20260831192041 81 120 4.0 8.0 0.00 0.04 0.04 74 1019.7
20260831191601 81 213 1.0 6.0 0.00 0.04 0.04 75 1019.7
20260831191045 81 119 1.0 8.0 0.00 0.04 0.04 74 1019.7
20260831190542 81 205 3.0 8.0 0.00 0.04 0.04 73 1019.8
20260831190114 81 150 4.0 7.0 0.00 0.04 0.04 72 1019.7
20260831185541 80 124 3.0 9.0 0.00 0.04 0.04 73 1019.7
20260831185044 80 145 3.0 10.0 0.00 0.04 0.04 73 1019.7
20260831184556 80 158 7.0 10.0 0.00 0.04 0.04 74 1019.9
20260831184041 80 115 5.0 9.0 0.00 0.04 0.04 74 1019.9
20260831183541 80 148 3.0 7.0 0.00 0.04 0.04 76 1020.0
20260831183105 79 172 3.0 7.0 0.00 0.04 0.04 75 1019.9
20260831182542 79 181 3.0 6.0 0.00 0.04 0.04 75 1020.0
20260831182042 79 197 1.0 7.0 0.00 0.04 0.04 76 1020.1
20260831181554 79 144 2.0 9.0 0.00 0.04 0.04 76 1020.1
20260831181042 79 178 2.0 9.0 0.00 0.04 0.04 76 1020.0
20260831180543 79 184 2.0 7.0 0.00 0.04 0.04 76 1020.1
20260831180105 79 174 2.0 5.0 0.00 0.04 0.04 75 1020.1
20260831175541 79 167 1.0 4.0 0.00 0.04 0.04 75 1020.1
20260831175042 80 177 1.0 6.0 0.00 0.04 0.04 74 1020.2
20260831174607 80 186 2.0 9.0 0.00 0.04 0.04 72 1020.3
20260831174042 80 216 3.0 9.0 0.00 0.04 0.04 72 1020.3
20260831173544 80 208 3.0 9.0 0.00 0.04 0.04 72 1020.2
20260831173056 80 220 2.0 9.0 0.00 0.04 0.04 73 1020.1
20260831172541 80 206 2.0 7.0 0.00 0.04 0.04 72 1020.2
20260831172041 80 232 2.0 7.0 0.00 0.04 0.04 74 1020.3
20260831171554 80 138 4.0 7.0 0.00 0.04 0.04 72 1020.2
20260831171041 80 0 1.0 7.0 0.00 0.04 0.04 74 1020.2
20260831170542 80 0 1.0 9.0 0.00 0.04 0.04 74 1020.3
20260831170056 79 172 5.0 9.0 0.00 0.04 0.04 73 1020.3
20260831165542 79 163 2.0 6.0 0.00 0.04 0.04 74 1020.3
20260831165042 80 109 1.0 7.0 0.00 0.04 0.04 74 1020.4
20260831164606 80 161 2.0 7.0 0.00 0.04 0.04 73 1020.5
20260831164041 80 163 3.0 7.0 0.00 0.04 0.04 75 1020.4
20260831163542 79 138 1.0 7.0 0.00 0.04 0.04 75 1020.5
20260831163058 79 0 0.0 7.0 0.00 0.04 0.04 74 1020.7
20260831162541 79 135 3.0 7.0 0.00 0.04 0.04 73 1020.6
20260831162042 79 97 1.0 5.0 0.00 0.04 0.04 75 1020.6
20260831161628 78 0 1.0 5.0 0.00 0.04 0.04 73 1020.7
20260831161041 78 163 0.0 4.0 0.00 0.04 0.04 73 1020.6
20260831160541 78 0 1.0 5.0 0.00 0.04 0.04 74 1020.7
20260831160054 78 0 3.0 7.0 0.00 0.04 0.04 75 1020.7
20260831155542 78 204 3.0 7.0 0.00 0.04 0.04 76 1020.6
20260831155042 78 135 1.0 6.0 0.00 0.04 0.04 75 1020.5
20260831154624 78 155 2.0 5.0 0.00 0.04 0.04 76 1020.7
20260831154042 77 150 0.0 6.0 0.00 0.04 0.04 78 1020.7
20260831153541 77 0 0.0 6.0 0.00 0.04 0.04 75 1020.8
20260831153103 77 163 2.0 6.0 0.00 0.04 0.04 76 1020.8
20260831152541 77 0 1.0 4.0 0.00 0.04 0.04 79 1020.8
20260831152042 76 174 1.0 3.0 0.00 0.04 0.04 79 1020.7
20260831151556 76 0 1.0 4.0 0.00 0.04 0.04 79 1020.7
20260831151043 76 129 1.0 6.0 0.00 0.04 0.04 79 1020.7
20260831150542 76 0 1.0 6.0 0.00 0.04 0.04 78 1020.8
20260831150107 76 96 2.0 6.0 0.00 0.04 0.04 79 1020.8
20260831145543 76 94 1.0 6.0 0.00 0.04 0.04 79 1020.7
20260831145041 76 74 3.0 7.0 0.00 0.04 0.04 79 1020.8
20260831144604 76 81 1.0 7.0 0.00 0.04 0.04 78 1020.9
20260831144041 76 109 3.0 7.0 0.00 0.04 0.04 78 1020.8
20260831143541 76 121 2.0 6.0 0.00 0.04 0.04 80 1020.8
20260831143108 75 94 1.0 6.0 0.00 0.04 0.04 79 1020.9
20260831142544 75 90 2.0 6.0 0.00 0.04 0.04 78 1020.9
20260831142041 76 94 2.0 6.0 0.00 0.04 0.04 80 1021.0
20260831141604 76 111 2.0 8.0 0.00 0.04 0.04 82 1021.0
20260831141042 75 0 3.0 8.0 0.00 0.04 0.04 80 1021.0
20260831140541 75 92 3.0 8.0 0.00 0.04 0.04 81 1021.0
20260831140051 75 125 1.0 4.0 0.00 0.04 0.04 84 1021.1
20260831135542 74 0 2.0 4.0 0.00 0.04 0.04 84 1021.1
20260831135041 73 0 1.0 3.0 0.00 0.04 0.04 87 1021.1
20260831134556 73 41 0.0 3.0 0.00 0.04 0.04 86 1021.0
20260831134041 73 0 0.0 3.0 0.00 0.04 0.04 87 1020.9
20260831133541 72 40 1.0 3.0 0.00 0.04 0.04 87 1021.0
20260831133054 72 40 0.0 2.0 0.00 0.04 0.04 91 1021.1
20260831132542 71 40 0.0 2.0 0.00 0.04 0.04 91 1021.1
20260831132045 71 40 0.0 2.0 0.00 0.04 0.04 94 1021.0
20260831131556 70 40 1.0 3.0 0.00 0.04 0.04 95 1021.1
20260831131041 70 0 0.0 3.0 0.00 0.04 0.04 96 1021.0
20260831130542 70 0 0.0 1.0 0.00 0.04 0.04 96 1021.0
20260831130113 70 0 0.0 0.0 0.00 0.04 0.04 96 1020.9
20260831125542 70 0 0.0 0.0 0.00 0.04 0.04 96 1020.8
20260831125042 69 0 0.0 0.0 0.00 0.04 0.04 96 1020.8
20260831124556 69 0 0.0 0.0 0.00 0.04 0.04 96 1020.8
20260831124042 69 0 0.0 0.0 0.00 0.04 0.04 96 1020.8
20260831123541 69 0 0.0 0.0 0.00 0.04 0.04 96 1020.9
20260831123055 69 0 0.0 0.0 0.00 0.04 0.04 96 1020.8
20260831122542 68 0 0.0 0.0 0.00 0.04 0.04 96 1020.8
20260831122041 68 0 0.0 0.0 0.00 0.04 0.04 96 1020.7
20260831121558 68 0 0.0 0.0 0.00 0.04 0.04 96 1020.7
20260831121042 68 0 0.0 0.0 0.00 0.04 0.04 96 1020.7
20260831120542 68 0 0.0 0.0 0.00 0.04 0.04 96 1020.6
20260831120100 68 0 0.0 0.0 0.00 0.04 0.04 96 1020.7
20260831115541 68 0 0.0 0.0 0.00 0.04 0.04 96 1020.7
20260831115041 67 0 0.0 0.0 0.00 0.04 0.04 96 1020.8
20260831114556 67 0 0.0 0.0 0.00 0.04 0.04 96 1020.8
20260831114045 67 0 0.0 0.0 0.00 0.04 0.04 96 1020.7
20260831113541 67 0 0.0 0.0 0.00 0.04 0.04 96 1020.7
20260831113111 67 0 0.0 0.0 0.00 0.04 0.04 96 1020.5
20260831112540 66 0 0.0 0.0 0.00 0.04 0.04 96 1020.6
20260831112041 66 0 0.0 0.0 0.00 0.04 0.04 96 1020.7
20260831111547 66 0 0.0 0.0 0.00 0.04 0.04 95 1020.7
20260831111042 66 0 0.0 0.0 0.00 0.04 0.04 95 1020.6
20260831110545 66 0 0.0 0.0 0.00 0.04 0.04 95 1020.6
20260831110056 66 0 0.0 0.0 0.00 0.04 0.04 95 1020.4
20260831105542 66 0 0.0 0.0 0.00 0.04 0.04 95 1020.3
20260831105042 66 0 0.0 0.0 0.00 0.04 0.04 95 1020.3
20260831104553 66 0 0.0 0.0 0.00 0.04 0.04 96 1020.1
20260831104042 66 0 0.0 0.0 0.00 0.04 0.04 95 1020.1
20260831103541 66 0 0.0 0.0 0.00 0.04 0.04 96 1020.2
20260831103103 66 0 0.0 0.0 0.00 0.04 0.04 95 1020.0
20260831102541 66 0 0.0 0.0 0.00 0.04 0.04 96 1019.9
20260831102041 66 0 0.0 0.0 0.00 0.04 0.04 95 1020.0
20260831101603 66 0 0.0 0.0 0.00 0.04 0.04 95 1019.9
20260831101041 66 0 0.0 0.0 0.00 0.04 0.04 95 1019.8
20260831100544 66 0 0.0 2.0 0.00 0.04 0.04 96 1019.8
20260831100056 66 0 0.0 2.0 0.00 0.04 0.04 95 1019.8
20260831095541 66 0 0.0 3.0 0.00 0.04 0.04 95 1019.8
20260831095041 66 40 1.0 3.0 0.00 0.04 0.04 95 1019.7
20260831094558 66 40 1.0 2.0 0.00 0.04 0.04 95 1019.7
20260831094040 66 0 0.0 2.0 0.00 0.04 0.04 95 1019.6
20260831093542 66 0 0.0 0.0 0.00 0.04 0.04 95 1019.7
20260831093051 66 0 0.0 0.0 0.00 0.04 0.04 95 1019.6
20260831092541 66 0 0.0 0.0 0.00 0.04 0.04 95 1019.6
20260831092045 66 0 0.0 3.0 0.00 0.04 0.04 95 1019.5
20260831091555 66 0 1.0 3.0 0.00 0.04 0.04 94 1019.5
20260831091042 66 40 2.0 3.0 0.00 0.04 0.04 94 1019.4
20260831090546 66 0 0.0 0.0 0.00 0.04 0.04 94 1019.3
20260831090106 66 0 0.0 0.0 0.00 0.04 0.04 94 1019.3
20260831085542 66 0 0.0 0.0 0.00 0.04 0.04 94 1019.3
20260831085042 66 0 0.0 0.0 0.00 0.04 0.04 94 1019.3
20260831084556 66 0 0.0 0.0 0.00 0.04 0.04 94 1019.3
20260831084041 66 0 0.0 0.0 0.00 0.04 0.04 93 1019.2
20260831083542 66 0 0.0 1.0 0.00 0.04 0.04 93 1019.3
20260831083059 67 0 0.0 1.0 0.00 0.04 0.04 94 1019.3
20260831082542 67 0 0.0 1.0 0.00 0.04 0.04 94 1019.3
20260831082042 67 0 0.0 0.0 0.00 0.04 0.04 94 1019.2
20260831081559 67 0 0.0 0.0 0.00 0.04 0.04 94 1019.2
20260831081042 67 0 0.0 0.0 0.00 0.04 0.04 94 1019.2
20260831080542 66 0 0.0 0.0 0.00 0.04 0.04 94 1019.2
20260831080058 66 0 0.0 2.0 0.00 0.04 0.04 93 1019.2
20260831075541 66 0 0.0 2.0 0.00 0.04 0.04 93 1019.3
20260831075041 67 0 0.0 0.0 0.00 0.04 0.04 93 1019.3
20260831074556 67 0 0.0 0.0 0.00 0.04 0.04 93 1019.2
20260831074045 68 0 0.0 0.0 0.00 0.04 0.04 93 1019.2
20260831073542 68 0 0.0 2.0 0.00 0.04 0.04 93 1019.1
20260831073058 68 0 0.0 2.0 0.00 0.04 0.04 93 1019.1
20260831072541 68 0 0.0 0.0 0.00 0.04 0.04 93 1019.1
20260831072041 68 0 0.0 0.0 0.00 0.04 0.04 93 1019.1
20260831071556 68 0 0.0 0.0 0.00 0.04 0.04 93 1019.1
20260831071040 69 0 0.0 0.0 0.00 0.04 0.04 93 1019.1
20260831070541 69 0 0.0 0.0 0.00 0.04 0.04 93 1018.8
20260831070058 69 0 0.0 0.0 0.00 0.04 0.04 93 1019.0
20260831065541 69 0 0.0 1.0 0.00 0.04 0.04 93 1019.2
20260831065043 69 0 0.0 1.0 0.00 0.04 0.04 93 1019.1
20260831064602 69 0 0.0 2.0 0.00 0.04 0.04 93 1019.3
20260831064042 70 0 0.0 2.0 0.00 0.04 0.04 93 1019.3
20260831063542 69 41 0.0 0.0 0.03 0.04 0.04 92 1019.3
20260831063054 69 0 0.0 0.0 0.04 0.04 0.04 92 1019.4
20260831062542 70 0 0.0 0.0 0.04 0.04 0.04 92 1019.4
20260831062043 70 0 0.0 0.0 0.04 0.04 0.04 91 1019.6
20260831061603 70 0 0.0 0.0 0.04 0.04 0.04 91 1019.6
20260831061044 70 0 0.0 0.0 0.04 0.04 0.04 91 1019.6
20260831060542 70 0 0.0 0.0 0.04 0.04 0.04 90 1019.6
20260831060058 71 0 0.0 2.0 0.04 0.04 0.04 90 1019.8
20260831055542 71 0 0.0 4.0 0.04 0.04 0.04 89 1019.8
20260831055042 71 41 2.0 5.0 0.04 0.04 0.04 89 1019.7
20260831054607 71 40 1.0 9.0 0.04 0.04 0.04 88 1019.9
20260831054042 71 42 2.0 9.0 0.04 0.04 0.04 88 1019.8
20260831053542 71 29 4.0 9.0 0.00 0.00 0.00 89 1020.0
20260831053057 70 5 2.0 6.0 0.00 0.00 0.00 90 1019.8
20260831052540 70 350 3.0 6.0 0.00 0.00 0.00 91 1019.9
20260831052043 70 26 3.0 6.0 0.00 0.00 0.00 91 1019.7
20260831051610 70 360 3.0 5.0 0.00 0.00 0.00 91 1019.6
20260831051042 70 350 1.0 5.0 0.00 0.00 0.00 92 1019.6
20260831050542 70 0 2.0 5.0 0.00 0.00 0.00 92 1019.6
20260831050104 70 347 3.0 5.0 0.00 0.00 0.00 92 1019.5
20260831045542 70 340 1.0 4.0 0.00 0.00 0.00 92 1019.5
20260831045044 70 0 2.0 4.0 0.00 0.00 0.00 92 1019.3
20260831044607 70 325 2.0 4.0 0.00 0.00 0.00 92 1019.5
20260831044041 71 225 0.0 2.0 0.00 0.00 0.00 92 1019.5
20260831043541 71 0 0.0 4.0 0.00 0.00 0.00 92 1019.5
20260831043054 70 0 0.0 6.0 0.00 0.00 0.00 92 1019.5
20260831042544 71 0 1.0 7.0 0.00 0.00 0.00 92 1019.7
20260831042041 71 194 3.0 7.0 0.00 0.00 0.00 93 1019.7
20260831041600 71 255 2.0 3.0 0.00 0.00 0.00 93 1019.5
20260831041042 71 252 0.0 2.0 0.00 0.00 0.00 92 1019.7
20260831040542 71 0 0.0 3.0 0.00 0.00 0.00 93 1019.6
20260831040054 71 0 0.0 3.0 0.00 0.00 0.00 93 1019.6
20260831035542 71 0 1.0 3.0 0.00 0.00 0.00 93 1019.7
20260831035041 71 0 0.0 3.0 0.00 0.00 0.00 93 1019.7
20260831034604 71 298 1.0 3.0 0.00 0.00 0.00 92 1019.9
20260831034040 72 0 0.0 0.0 0.00 0.00 0.00 93 1020.0
20260831033542 72 0 0.0 0.0 0.00 0.00 0.00 93 1020.1
20260831033052 71 0 0.0 0.0 0.00 0.00 0.00 93 1020.1
20260831032542 71 0 0.0 0.0 0.00 0.00 0.00 92 1020.1
20260831032043 72 0 0.0 0.0 0.00 0.00 0.00 92 1020.0
20260831031556 72 0 0.0 0.0 0.00 0.00 0.00 92 1020.0
20260831031042 72 0 0.0 0.0 0.00 0.00 0.00 92 1020.2
20260831030541 72 0 0.0 0.0 0.00 0.00 0.00 92 1020.2
20260831030055 72 0 0.0 0.0 0.00 0.00 0.00 92 1020.1
20260831025540 72 0 0.0 0.0 0.00 0.00 0.00 91 1020.2
20260831025041 72 0 0.0 0.0 0.00 0.00 0.00 91 1020.2
20260831024553 72 0 0.0 0.0 0.00 0.00 0.00 91 1020.2
20260831024041 73 0 0.0 0.0 0.00 0.00 0.00 91 1020.2
20260831023541 73 0 0.0 0.0 0.00 0.00 0.00 91 1020.1
20260831023103 73 0 0.0 0.0 0.00 0.00 0.00 91 1020.1
20260831022542 73 0 0.0 0.0 0.00 0.00 0.00 91 1020.1
20260831022042 73 0 0.0 0.0 0.00 0.00 0.00 90 1020.0
20260831021557 73 0 0.0 0.0 0.00 0.00 0.00 90 1020.1
20260831021042 73 0 0.0 2.0 0.00 0.00 0.00 90 1020.1
20260831020545 73 0 0.0 3.0 0.00 0.00 0.00 90 1020.1
20260831020059 73 0 0.0 3.0 0.00 0.00 0.00 91 1020.1
20260831015542 73 298 2.0 3.0 0.00 0.00 0.00 91 1020.1
20260831015042 73 298 2.0 3.0 0.00 0.00 0.00 91 1020.1
20260831014555 73 0 0.0 2.0 0.00 0.00 0.00 90 1020.1
20260831014041 73 0 0.0 2.0 0.00 0.00 0.00 91 1020.0
20260831013542 73 0 1.0 2.0 0.00 0.00 0.00 91 1020.1
20260831013109 73 298 1.0 2.0 0.00 0.00 0.00 91 1020.0
20260831012544 73 0 0.0 0.0 0.00 0.00 0.00 90 1020.0
20260831012041 73 0 0.0 0.0 0.00 0.00 0.00 90 1019.9
20260831011602 73 0 0.0 0.0 0.00 0.00 0.00 90 1020.0
20260831011044 73 0 0.0 0.0 0.00 0.00 0.00 90 1019.9
20260831010543 74 0 0.0 2.0 0.00 0.00 0.00 90 1019.9
20260831010058 74 0 0.0 3.0 0.00 0.00 0.00 90 1019.9
20260831005541 74 298 1.0 3.0 0.00 0.00 0.00 89 1019.9
20260831005041 74 297 0.0 2.0 0.00 0.00 0.00 89 1019.7
20260831004556 74 0 0.0 0.0 0.00 0.00 0.00 89 1019.6
20260831004248 74 0 0.0 0.0 0.00 0.00 0.00 88 1019.5
20260831003541 74 0 0.0 2.0 0.00 0.00 0.00 88 1019.4
20260831003106 74 0 0.0 2.0 0.00 0.00 0.00 89 1019.3
20260831002541 74 297 0.0 2.0 0.00 0.00 0.00 89 1019.2
20260831002045 74 0 0.0 1.0 0.00 0.00 0.00 88 1019.1
20260831001600 74 0 0.0 1.0 0.00 0.00 0.00 88 1019.1
20260831001043 75 0 0.0 3.0 0.00 0.00 0.00 87 1019.0
20260831000543 75 0 0.0 3.0 0.00 0.00 0.00 87 1018.8
20260831000059 75 297 2.0 3.0 0.00 0.00 0.00 87 1018.8
20260830235542 75 297 2.0 3.0 0.00 0.00 0.00 86 1018.8
20260830235046 76 0 0.0 0.0 0.00 0.00 0.00 85 1018.7
20260830234607 76 0 0.0 0.0 0.00 0.00 0.00 85 1018.6
20260830234042 76 0 0.0 0.0 0.00 0.00 0.00 85 1018.7
20260830233542 76 0 0.0 0.0 0.00 0.00 0.00 84 1018.7
20260830233100 77 0 0.0 0.0 0.00 0.00 0.00 84 1018.8
20260830232541 77 0 0.0 2.0 0.00 0.00 0.00 83 1018.8
20260830232042 78 0 0.0 2.0 0.00 0.00 0.00 82 1018.9
20260830231559 78 146 0.0 2.0 0.00 0.00 0.00 82 1018.8